Dewpoint
15 14 17 17 16 15 13 13 21 32 30 28 41 51 46 48 46 43 44 46 49 50 52 54 54 56 57 59 60 61 60 65 61 55 55 52 53 54 53 56 57 60 58 60
18 17 18 17 14 10 12 16 23 30 30 30 48 52 56 50 48 45 45 46 48 51 52 54 55 57 58 59 60 61 62 64 63 58 61 58 56 54 56 54 60 58 57 59
17 16 15 11 12 16 18 21 29 27 29 34 39 48 48 53 54 46 48 49 49 50 52 54 54 55 54 55 59 60 62 63 64 64 60 57 57 55 53 54 54 57 58 57
15 16 13 12 15 15 19 19 17 19 22 22 36 37 43 53 52 57 54 49 49 51 52 51 52 50 53 54 58 57 58 60 58 60 56 59 54 54 55 55 55 56 56 56
15 14 13 16 19 16 17 22 18 16 18 22 32 34 51 51 47 50 56 51 56 59 50 51 45 45 45 47 56 56 57 60 61 58 57 56 57 55 55 54 54 54 53 53
17 15 15 19 17 14 20 19 20 23 23 20 34 29 45 49 48 49 54 51 54 53 48 48 44 45 45 43 46 49 58 57 56 55 58 57 57 55 53 52 51 49 49 49
18 16 13 18 16 21 19 25 23 24 25 28 35 39 44 44 49 52 50 50 47 47 44 42 43 47 45 45 43 51 53 53 56 55 56 56 55 54 53 52 49 48 47 48
18 15 16 16 20 22 20 22 20 21 14 11 31 40 44 43 47 49 49 47 45 42 40 40 40 40 38 48 51 50 50 52 54 53 56 55 54 51 51 51 50 48 47 46
29 18 20 19 19 18 25 27 27 25 25 19 35 39 42 43 41 45 45 43 42 41 40 40 40 42 45 48 51 50 51 52 51 52 53 53 53 50 49 52 49 49 49 47
33 27 23 20 19 20 25 24 21 25 25 18 35 39 40 41 41 41 41 40 39 39 37 36 43 46 46 45 51 52 51 51 51 50 52 51 51 50 49 51 49 48 49 48
26 30 26 23 22 25 25 27 31 30 25 25 20 36 42 42 42 41 38 38 37 35 33 40 42 44 44 46 47 51 50 49 47 52 51 51 49 47 49 49 46 48 47 46
32 37 27 28 28 25 24 26 29 27 31 27 22 38 42 41 40 39 36 36 35 35 34 41 43 43 44 45 49 50 49 45 49 50 51 50 49 49 49 48 46 46 45 44
34 30 26 25 27 28 25 25 26 31 38 33 29 39 42 40 39 38 36 35 35 36 42 44 44 43 45 49 51 48 44 48 49 50 51 49 48 48 48 46 46 45 45 44
50 37 34 29 34 32 30 23 25 31 31 30 36 39 38 38 37 36 35 37 36 37 43 45 44 45 49 50 49 46 45 49 50 48 49 48 47 48 47 46 46 45 45 44
42 34 28 24 25 25 23 21 25 28 31 31 32 36 36 38 36 34 37 39 39 40 42 43 44 45 48 50 48 43 46 49 49 47 46 46 46 48 46 47 47 46 45 45
41 34 29 23 20 22 24 26 28 28 27 28 36 35 35 36 33 34 40 40 41 41 41 44 45 47 50 48 44 45 48 49 47 46 45 46 45 45 46 47 46 46 45 46
39 37 34 25 23 26 28 30 29 31 30 31 32 34 33 32 33 41 42 42 41 42 43 44 44 50 51 48 45 47 48 48 47 45 43 44 46 46 47 47 47 46 47 47
40 44 37 30 28 22 36 32 29 32 32 33 33 32 31 32 43 42 40 41 41 43 43 44 49 50 50 46 48 49 48 46 44 44 43 44 46 46 47 46 46 47 47 47
44 44 32 31 25 36 32 32 32 32 37 38 36 32 31 35 43 43 41 41 43 44 45 49 49 49 47 48 47 47 46 44 42 43 42 45 45 45 47 47 46 46 45 45
37 42 39 30 30 27 37 33 31 37 37 40 35 34 36 36 31 41 42 42 43 45 48 48 49 47 49 48 49 47 44 44 44 42 44 45 47 48 47 49 47 47 46 46
33 34 32 30 31 38 37 32 33 37 42 40 37 38 40 41 43 44 43 43 43 44 48 48 48 47 49 47 49 47 45 44 45 44 43 45 47 48 49 49 49 47 46 46
33 33 30 31 29 37 36 33 38 47 42 38 39 41 42 43 42 42 43 44 44 44 45 45 46 47 47 50 48 46 45 46 46 45 45 45 47 48 47 49 48 47 47 46
36 44 42 45 45 51 47 48 47 45 40 37 42 42 43 41 41 42 43 44 46 46 46 45 45 45 49 51 49 47 48 47 47 45 46 47 47 48 49 49 47 45 46 45
42 43 42 42 43 43 43 43 42 40 38 42 42 43 43 42 42 43 43 43 45 45 43 45 44 45 49 50 48 49 48 48 48 45 46 46 48 49 49 45 45 45 44 44
32 36 41 44 43 42 42 42 39 37 41 41 42 42 42 42 42 44 44 48 45 45 44 44 44 48 49 51 50 50 49 48 46 45 47 47 45 47 47 47 45 45 46 44
36 44 37 38 46 42 44 42 38 36 41 42 42 43 42 43 43 45 45 48 49 46 46 45 48 49 49 49 49 51 49 47 47 47 45 43 45 47 43 47 46 42 42 42
Lifted_Index
5 4 2 1 0 0 -0 -1 -1 -0 0 -0 -1 -1 -2 -2 -1 0 1 1 0 -1 -0 -0 0 0 0 -0 -0 0 0 -0 0 2 2 3 3 3 3 3 3 3 3 3
3 2 1 1 1 0 -0 -1 -0 -0 0 0 -0 -1 -1 -2 -1 -0 0 0 -0 -1 -1 -1 -0 -0 0 0 0 0 0 0 1 1 2 2 3 3 3 3 3 3 3 3
1 1 1 1 1 1 -0 -1 -0 0 0 -0 -0 -0 -1 -1 -1 -1 -1 -0 -1 -1 -1 -1 -1 0 1 1 1 1 2 2 1 2 2 3 3 4 4 4 4 4 4 5
-0 0 1 1 1 0 -0 -0 0 1 0 -0 -1 -0 -0 -0 -0 -1 -1 -1 -1 -1 -2 -1 0 1 2 2 2 2 3 2 2 2 3 3 3 4 4 5 5 5 6 6
-0 0 1 1 1 1 1 1 1 1 0 -0 -1 -1 -1 -0 -0 -1 -2 -2 -2 -2 -1 -0 1 2 3 3 3 3 2 2 2 2 3 3 3 4 4 5 6 7 7 7
-0 0 0 1 1 1 1 1 1 0 -0 -0 -0 -1 -1 -1 -1 -2 -2 -2 -2 -1 -0 1 2 2 3 3 3 2 2 1 2 2 2 3 3 4 5 5 6 7 7 7
-0 0 1 1 1 1 1 1 0 -0 -0 -0 -1 -1 -2 -2 -2 -2 -2 -2 -1 -0 1 2 2 2 3 3 3 2 2 2 2 1 2 2 3 4 5 6 6 7 7 7
-1 -0 1 1 1 0 0 0 0 -0 -0 -1 -1 -1 -1 -1 -2 -2 -1 -1 0 1 1 2 2 3 3 3 2 2 2 2 2 2 2 3 4 5 5 6 7 7 7 7
-1 -0 0 1 1 1 0 0 0 0 -0 -1 -1 -1 -1 -1 -1 -1 -1 0 1 1 2 2 3 3 3 3 3 3 3 3 3 3 3 4 5 6 6 7 7 7 8 8
-0 -0 0 1 1 1 0 0 0 0 -0 -1 -1 -1 -1 -1 -0 -0 -0 1 2 2 2 3 3 4 4 4 4 4 4 4 4 4 4 4 5 6 7 7 7 8 8 8
1 1 0 1 1 1 0 0 0 1 0 -0 -1 -1 -1 -0 0 0 1 2 2 3 4 4 4 4 5 5 5 5 5 5 5 4 4 5 6 7 7 7 8 8 9 9
2 1 1 1 1 1 1 1 1 1 1 0 -0 -1 -0 0 1 1 2 3 3 4 5 5 5 5 5 5 5 6 6 6 5 5 5 6 6 7 7 7 8 9 9 10
2 2 1 1 1 1 2 2 2 2 1 0 -1 -1 -0 1 1 2 3 4 4 5 5 5 5 5 6 6 6 7 7 6 5 5 6 7 7 7 8 8 9 9 10 10
2 2 1 1 1 1 2 3 3 2 1 0 -0 -0 1 2 3 3 4 4 5 5 6 6 6 6 6 6 7 8 8 6 6 6 7 8 8 8 8 8 9 9 10 10
2 2 2 2 2 2 3 3 3 3 2 1 1 1 2 3 4 4 4 5 5 6 6 6 6 6 6 6 7 8 8 7 7 7 8 9 9 9 8 8 9 9 9 9
2 2 2 3 3 3 3 3 3 3 3 2 2 2 3 4 5 5 5 5 6 6 7 7 6 6 6 7 8 9 8 7 8 8 9 9 9 8 8 8 8 9 9 9
2 2 2 3 3 3 3 3 3 3 3 3 3 3 4 5 5 5 5 5 6 7 7 7 6 6 6 7 9 9 8 8 8 9 9 9 8 8 8 8 8 8 8 8
2 1 2 2 2 2 2 3 3 3 3 3 4 4 5 6 5 5 5 6 7 7 7 7 6 6 7 8 9 9 9 9 9 10 9 9 8 8 8 8 8 8 8 8
1 1 1 2 1 1 2 3 3 3 3 3 4 5 6 6 6 5 6 7 7 7 7 7 6 7 7 8 9 9 9 10 10 10 9 9 8 8 8 8 8 8 8 8
2 1 1 1 0 1 2 3 3 3 2 3 4 5 6 6 6 6 7 7 7 7 7 7 7 7 8 8 9 9 10 10 10 10 10 9 8 8 7 7 7 8 8 8
2 2 2 1 1 1 2 3 3 2 2 3 5 6 6 6 6 7 7 8 7 7 7 7 7 7 8 8 8 9 10 10 10 10 10 9 8 8 7 7 7 8 8 8
1 1 1 1 1 1 3 3 3 3 4 5 6 6 6 7 7 8 8 7 7 7 7 7 7 8 8 8 8 9 10 11 11 10 10 9 8 8 7 7 7 7 8 8
1 1 1 1 1 2 3 3 4 4 5 6 6 6 7 8 8 8 7 7 6 6 7 7 8 8 8 8 8 9 10 10 11 11 10 9 8 8 7 7 7 8 8 8
1 1 1 2 2 3 4 4 5 6 7 7 7 7 8 8 8 8 7 7 6 6 7 7 8 8 7 7 8 8 9 10 11 11 10 10 9 8 8 7 8 8 8 8
2 2 2 2 3 4 4 5 7 7 7 7 7 7 8 8 8 8 7 6 6 6 7 7 7 7 7 7 7 8 9 10 10 10 10 10 10 9 8 8 8 8 8 8
3 3 3 3 3 3 4 5 7 7 7 7 7 7 8 8 8 8 7 6 6 6 7 7 7 7 6 6 7 8 9 9 10 10 10 10 10 9 8 8 7 8 8 8